[[{"header":{"parameterUnit":"m.s-1","parameterCategory":1,"la1":30.2991,"la2":30.254,"lo1":-89.0895,"lo2":-89.0444,"dy":0.0017,"dx":0.0017,"nx":28,"ny":28,"refTime":"2024-02-24T03:00:00:Z","depth":0,"parameterNumber":2,"parameterNumberName":"U-component_of_WINDS"},"data":[0,0,0,0,0,0,0,0,0,0,0,0,0,0,0,0,0,0,0,0,0,0,0,0,0,0,0,0,0,0,0,0,0,0,0,0,0,0,0,0,0,0,0,0,0,0,0,0,0,0,0,0,0,0,0,0,0,0,1.9462,1.9462,0,1.9434,1.9434,1.9434,1.938,1.9379,1.9378,1.9377,1.9348,1.9349,1.9349,0,0,0,0,0,0,0,0,0,0,0,0,0,1.947,1.947,1.9462,1.9462,1.9461,1.9434,1.9434,1.9433,1.938,1.9379,1.9377,1.9376,1.9348,1.9348,1.9349,0,0,0,0,0,0,0,0,0,0,0,0,0,1.9457,1.947,1.9462,1.9431,1.9428,1.9434,1.9434,1.9433,1.938,1.9379,1.9377,1.9375,1.9348,1.9348,1.9349,1.9383,0,0,1.935,1.935,0,0,0,0,0,0,0,0,1.9458,1.9457,1.9436,1.9433,1.943,1.9409,1.9426,1.9416,1.9381,1.9398,1.9377,1.9375,1.937,1.9368,1.9366,1.9381,1.938,1.935,1.935,1.935,1.935,0,0,0,0,0,0,0,1.9459,1.9457,1.9451,1.9436,1.9432,1.9419,1.9416,1.9424,1.9393,1.9397,1.9393,1.939,1.9368,1.9366,1.9365,1.938,1.935,1.935,1.935,1.9351,1.9423,1.9425,0,0,0,0,0,0,1.9464,1.9459,1.9452,1.945,1.944,1.942,1.9416,1.9417,1.9393,1.9388,1.9392,1.9388,1.9366,1.9365,1.9364,1.9403,1.935,1.9351,1.9351,1.9421,1.9423,1.9425,0,0,0,0,0,0,1.9464,1.9464,1.9453,1.9453,1.9451,1.9422,1.9423,1.9417,1.9416,1.9389,1.9383,1.9396,1.9365,1.9364,1.9379,1.9402,1.9351,1.9351,1.9419,1.9422,1.9424,1.9482,0,0,0,0,0,0,1.9465,1.9464,1.9476,1.9454,1.9451,1.9468,1.9425,1.9418,1.9417,1.9411,1.9391,1.9387,1.9364,1.9379,1.9379,1.9401,1.9351,1.9417,1.9421,1.9424,1.9478,1.9486,1.9493,0,0,0,0,0,1.9465,1.9493,1.9477,1.9477,1.9465,1.9469,1.9467,1.9441,1.9419,1.9431,1.9414,1.9387,1.9399,1.9381,1.9381,1.9403,1.9416,1.942,1.9423,1.9474,1.9484,1.9493,0,0,0,0,0,0,1.9518,1.9489,1.9471,1.9493,1.9484,1.946,1.9474,1.9452,1.9449,1.9444,1.9411,1.9407,1.9427,1.9417,1.9396,1.9436,1.9403,1.9407,1.9442,1.9451,1.9459,1.9461,1.9352,0,0,0,0,0,1.9533,1.9538,1.9512,1.9534,1.953,1.9503,1.9504,1.9484,1.9474,1.9469,1.9454,1.9445,1.9446,1.9448,1.9448,1.9476,1.9472,1.9492,1.9499,1.9506,1.951,1.9526,1.9535,1.9438,1.9438,1.9438,0,0,1.9562,1.9547,1.9552,1.9544,1.9535,1.9541,1.95,1.9509,1.9514,1.9471,1.9484,1.9473,1.9461,1.9483,1.9492,1.9475,1.9536,1.9511,1.9516,1.9517,1.9531,1.954,1.9548,1.9441,1.944,1.944,0,0,1.9619,1.9607,1.9625,1.9617,1.9604,1.9586,1.9591,1.957,1.9561,1.9575,1.9543,1.9549,1.9552,1.9545,1.9542,1.96,1.9575,1.9601,1.9641,1.9656,1.9664,1.9671,1.9692,1.97,1.9605,1.9605,1.9605,0,1.9657,1.9665,1.9636,1.9648,1.9646,1.9608,1.9626,1.962,1.9607,1.9607,1.9588,1.9593,1.9582,1.9603,1.9618,1.9616,1.9621,1.9602,1.9665,1.9672,1.9677,1.9698,1.9706,1.9608,1.9608,1.9607,1.9607,0,1.9713,1.972,1.9736,1.9726,1.9725,1.974,1.9714,1.9718,1.9699,1.9684,1.9699,1.9685,1.9682,1.9686,1.9666,1.9705,1.9695,1.9671,1.9638,1.969,1.9709,1.9716,1.9613,1.9611,1.961,1.961,0,0,1.9801,1.9777,1.9783,1.9779,1.9763,1.9768,1.9781,1.9779,1.9783,1.9777,1.9788,1.9793,1.9772,1.9768,1.9749,1.9763,1.9811,1.9737,1.9737,1.9752,1.9853,1.9871,1.9881,1.9795,1.9796,1.9797,1.9855,0,1.9855,1.9877,1.9852,1.9879,1.9886,1.9851,1.9863,1.9855,1.9842,1.9846,1.9831,1.9836,1.9807,1.9805,1.9817,1.9802,1.9831,1.9798,1.9805,1.9806,1.981,1.989,1.9909,1.9964,1.9862,1.9863,1.9864,0,1.992,1.9918,1.9946,1.993,1.9931,1.9943,1.994,1.9944,1.9935,1.9924,1.9922,1.9899,1.9912,1.988,1.9899,1.9877,1.9879,1.9872,1.9874,1.9874,1.9838,1.9893,1.998,1.9989,1.9874,1.9874,1.9873,0,1.9983,1.9987,2.0004,2.0001,1.9983,1.9992,1.9985,1.9974,1.9975,1.9973,1.9973,1.9973,1.9973,1.9973,1.9951,1.9929,1.9973,1.9938,1.9965,1.9966,1.9976,1.9975,2.0066,1.9977,1.9976,1.9976,1.9976,0,2.0046,2.0064,2.0032,2.0043,2.0064,2.0036,2.0057,2.0047,2.0038,2.0047,2.0017,2.0026,1.9996,2.0002,1.9985,2.0004,2.0003,1.9996,1.9991,1.9999,2.0,2.0,1.9996,1.9978,1.9978,1.9978,1.9977,0,2.0119,2.0098,2.0115,2.0097,2.0093,2.0109,2.0094,2.0103,2.0089,2.0101,2.0102,2.0079,2.0085,2.0063,2.0065,2.0054,2.0082,2.0071,2.0086,2.0082,2.0111,2.0109,2.0204,2.0216,2.0119,2.012,2.0121,0,2.016,2.0174,2.0158,2.0162,2.0157,2.0163,2.0164,2.0139,2.0141,2.0133,2.0145,2.0148,2.015,2.0161,2.0145,2.0147,2.0136,2.017,2.0136,2.0144,2.0138,2.0138,2.0139,2.0177,2.0178,2.0179,2.018,0,2.0237,2.0226,2.0229,2.0229,2.0232,2.0231,2.0228,2.0233,2.0205,2.021,2.0216,2.0217,2.0221,2.0225,2.0224,2.0217,2.0195,2.019,2.0197,2.0205,2.0213,2.021,2.0105,2.0188,2.0187,2.0187,2.0186,2.0186,2.0296,2.0307,2.0298,2.0303,2.0298,2.0296,2.0305,2.0293,2.0297,2.0298,2.0282,2.0292,2.0285,2.0281,2.0277,2.0285,2.0269,2.0278,2.0281,2.0284,2.0289,2.0212,2.0284,2.0284,2.0284,2.0284,2.0283,0,2.0371,2.0364,2.0369,2.0366,2.037,2.0349,2.0345,2.035,2.0359,2.0354,2.0357,2.0365,2.037,2.0355,2.0358,2.0367,2.0357,2.0369,2.0368,2.0367,2.0302,2.0297,2.0377,2.0377,2.0377,2.0377,2.0377,2.0377,2.0411,2.0429,2.0418,2.0435,2.0427,2.0437,2.0437,2.0436,2.0432,2.0442,2.0446,2.0437,2.0428,2.0431,2.0435,2.0431,2.0433,2.0449,2.0442,2.0381,2.0372,2.0363,2.0358,2.045,2.045,2.0506,2.0507,2.0507]},{"header":{"parameterUnit":"m.s-1","parameterCategory":1,"la1":30.2991,"la2":30.254,"lo1":-89.0895,"lo2":-89.0444,"dy":0.0017,"dx":0.0017,"nx":28,"ny":28,"refTime":"2024-02-24T03:00:00:Z","depth":0,"parameterNumber":3,"parameterNumberName":"V-component_of_WINDS"},"data":[0,0,0,0,0,0,0,0,0,0,0,0,0,0,0,0,0,0,0,0,0,0,0,0,0,0,0,0,0,0,0,0,0,0,0,0,0,0,0,0,0,0,0,0,0,0,0,0,0,0,0,0,0,0,0,0,0,0,-3.3497,-3.3497,0,-3.3576,-3.3577,-3.3577,-3.361,-3.361,-3.3609,-3.3609,-3.3688,-3.369,-3.3693,0,0,0,0,0,0,0,0,0,0,0,0,0,-3.3374,-3.3376,-3.3496,-3.3497,-3.3498,-3.3576,-3.3577,-3.3578,-3.361,-3.361,-3.3609,-3.3609,-3.3687,-3.369,-3.3693,0,0,0,0,0,0,0,0,0,0,0,0,0,-3.3437,-3.3376,-3.3496,-3.3524,-3.3527,-3.3575,-3.3577,-3.3578,-3.361,-3.361,-3.3609,-3.3609,-3.3687,-3.369,-3.3693,-3.3719,0,0,-3.3704,-3.3705,0,0,0,0,0,0,0,0,-3.3434,-3.3442,-3.3519,-3.3522,-3.3526,-3.3583,-3.3562,-3.3625,-3.361,-3.3578,-3.3609,-3.3609,-3.3653,-3.3659,-3.3675,-3.3723,-3.3726,-3.3704,-3.3706,-3.3707,-3.3708,0,0,0,0,0,0,0,-3.3429,-3.3438,-3.3528,-3.352,-3.3524,-3.3532,-3.3541,-3.3574,-3.3616,-3.3581,-3.3584,-3.3593,-3.3655,-3.3671,-3.3677,-3.3727,-3.3704,-3.3707,-3.3709,-3.371,-3.3804,-3.3804,0,0,0,0,0,0,-3.342,-3.3435,-3.3525,-3.353,-3.3478,-3.3535,-3.3545,-3.3565,-3.3616,-3.3623,-3.3593,-3.3594,-3.3666,-3.3673,-3.368,-3.3715,-3.3707,-3.371,-3.3712,-3.3804,-3.3804,-3.3805,0,0,0,0,0,0,-3.3417,-3.3428,-3.3522,-3.3483,-3.3496,-3.3537,-3.3559,-3.3566,-3.3583,-3.3625,-3.3632,-3.3602,-3.3666,-3.3675,-3.371,-3.3718,-3.3712,-3.3715,-3.3803,-3.3804,-3.3804,-3.3785,0,0,0,0,0,0,-3.3414,-3.3427,-3.3437,-3.3483,-3.3498,-3.3551,-3.356,-3.3568,-3.3589,-3.3591,-3.3635,-3.3642,-3.3666,-3.3705,-3.3713,-3.3723,-3.3718,-3.3802,-3.3803,-3.3804,-3.3785,-3.3785,-3.3785,0,0,0,0,0,-3.3409,-3.3427,-3.3437,-3.3448,-3.3511,-3.3551,-3.3559,-3.3587,-3.3589,-3.36,-3.3628,-3.3641,-3.3716,-3.3708,-3.3718,-3.3728,-3.3802,-3.3803,-3.3804,-3.3785,-3.3785,-3.3785,0,0,0,0,0,0,-3.3379,-3.3433,-3.3445,-3.3478,-3.351,-3.3557,-3.357,-3.3586,-3.3617,-3.3617,-3.365,-3.366,-3.3693,-3.3714,-3.3704,-3.3758,-3.376,-3.3763,-3.3742,-3.3742,-3.3742,-3.3736,-3.3721,0,0,0,0,0,-3.3377,-3.3405,-3.3451,-3.3476,-3.3491,-3.3528,-3.3547,-3.3566,-3.36,-3.3613,-3.3643,-3.3675,-3.3706,-3.3725,-3.3756,-3.3789,-3.38,-3.3801,-3.3801,-3.3801,-3.3803,-3.3823,-3.3825,-3.3808,-3.3808,-3.3808,0,0,-3.3371,-3.3404,-3.342,-3.3471,-3.3497,-3.3526,-3.3539,-3.3568,-3.359,-3.3617,-3.3652,-3.3676,-3.3714,-3.3748,-3.3765,-3.3767,-3.381,-3.3802,-3.3801,-3.3804,-3.3825,-3.3826,-3.3828,-3.3809,-3.3809,-3.3809,0,0,-3.3376,-3.3403,-3.3428,-3.3455,-3.3497,-3.3522,-3.3528,-3.3573,-3.359,-3.3626,-3.3648,-3.3674,-3.3727,-3.3754,-3.3774,-3.3793,-3.3807,-3.3802,-3.3801,-3.3821,-3.3822,-3.3824,-3.3831,-3.3833,-3.3804,-3.3804,-3.3804,0,-3.3363,-3.3407,-3.3439,-3.3468,-3.349,-3.3518,-3.3544,-3.3569,-3.3617,-3.3632,-3.3634,-3.3703,-3.373,-3.3772,-3.3777,-3.3793,-3.3801,-3.3796,-3.382,-3.3821,-3.3823,-3.3831,-3.3833,-3.3803,-3.3803,-3.3804,-3.3804,0,-3.3391,-3.3422,-3.3437,-3.3485,-3.3509,-3.3536,-3.3572,-3.3593,-3.3611,-3.3636,-3.3674,-3.3709,-3.3748,-3.376,-3.3776,-3.3805,-3.3805,-3.3813,-3.3816,-3.3823,-3.3831,-3.3834,-3.3802,-3.3802,-3.3803,-3.3803,0,0,-3.3376,-3.3443,-3.3448,-3.3472,-3.3521,-3.3545,-3.3575,-3.3614,-3.3632,-3.3666,-3.3692,-3.3737,-3.3746,-3.3769,-3.379,-3.3807,-3.3822,-3.3814,-3.3815,-3.3814,-3.3857,-3.385,-3.3853,-3.3832,-3.3833,-3.3833,-3.3854,0,-3.3387,-3.3441,-3.3472,-3.3513,-3.3543,-3.3572,-3.3598,-3.3631,-3.3656,-3.3685,-3.3713,-3.3745,-3.3753,-3.3768,-3.3787,-3.3816,-3.3831,-3.3815,-3.3857,-3.3858,-3.3846,-3.3857,-3.385,-3.3867,-3.3857,-3.3858,-3.3858,0,-3.3407,-3.3442,-3.3487,-3.3535,-3.3549,-3.3571,-3.3612,-3.3639,-3.3678,-3.3695,-3.3723,-3.3744,-3.3778,-3.3779,-3.3826,-3.3815,-3.3834,-3.3851,-3.3853,-3.3857,-3.3858,-3.3862,-3.3873,-3.3876,-3.3863,-3.3863,-3.3862,0,-3.3392,-3.345,-3.3485,-3.3504,-3.3561,-3.3577,-3.3601,-3.364,-3.3663,-3.3699,-3.3714,-3.3752,-3.3773,-3.3803,-3.3835,-3.3833,-3.3879,-3.3882,-3.3894,-3.3893,-3.3901,-3.39,-3.3916,-3.3914,-3.3914,-3.3914,-3.3914,0,-3.3401,-3.3428,-3.348,-3.3501,-3.3533,-3.3568,-3.3598,-3.3625,-3.366,-3.3688,-3.3715,-3.374,-3.378,-3.3811,-3.3836,-3.3872,-3.3881,-3.3896,-3.3902,-3.3893,-3.3892,-3.3906,-3.3905,-3.3915,-3.3915,-3.3915,-3.3915,0,-3.3389,-3.3425,-3.3465,-3.3517,-3.3531,-3.3552,-3.3596,-3.3619,-3.3647,-3.3681,-3.3692,-3.3735,-3.3773,-3.3808,-3.3858,-3.3875,-3.3911,-3.3919,-3.3898,-3.3901,-3.3911,-3.391,-3.3936,-3.3942,-3.3936,-3.3936,-3.3936,0,-3.3392,-3.3414,-3.3469,-3.349,-3.3514,-3.3547,-3.3571,-3.3608,-3.3633,-3.3681,-3.3698,-3.3738,-3.3772,-3.3831,-3.3867,-3.3906,-3.3915,-3.3922,-3.3921,-3.3913,-3.3916,-3.3914,-3.3917,-3.3921,-3.3921,-3.3921,-3.3921,0,-3.3394,-3.3412,-3.3446,-3.3487,-3.3516,-3.355,-3.3585,-3.36,-3.3644,-3.367,-3.371,-3.3737,-3.379,-3.3829,-3.3873,-3.3899,-3.3917,-3.3922,-3.3926,-3.3917,-3.3904,-3.3912,-3.3897,-3.392,-3.392,-3.392,-3.392,-3.392,-3.339,-3.3411,-3.3454,-3.3492,-3.3522,-3.3555,-3.358,-3.3612,-3.3646,-3.3692,-3.3712,-3.3753,-3.3794,-3.3855,-3.3881,-3.3914,-3.3918,-3.3924,-3.3926,-3.3927,-3.3926,-3.39,-3.3922,-3.3922,-3.3922,-3.3922,-3.3922,0,-3.3393,-3.3423,-3.3458,-3.3507,-3.3537,-3.3554,-3.3595,-3.3619,-3.3654,-3.3692,-3.3726,-3.3773,-3.3813,-3.3853,-3.3895,-3.3914,-3.3924,-3.3924,-3.3922,-3.3928,-3.3919,-3.3911,-3.3915,-3.3915,-3.3915,-3.3915,-3.3915,-3.3915,-3.3399,-3.3436,-3.3459,-3.3513,-3.3543,-3.3583,-3.3605,-3.3636,-3.3666,-3.3718,-3.3752,-3.3779,-3.3818,-3.3864,-3.3902,-3.3913,-3.3927,-3.3924,-3.3938,-3.3928,-3.3929,-3.3929,-3.3921,-3.3927,-3.3927,-3.3944,-3.3944,-3.3944]}]]